Falls City, NE

1:09 PM CST on November 20, 2019 (GMT -0600)
Brenner

Weather History for KFNB - October, 2019

Change the Weather History Date:

Monday, October 21, 2019

  Actual Average Record
Temperature  
Mean Temperature 48 °F -  
Max Temperature 55 °F 66 °F 88 °F (1978)
Min Temperature 43 °F 41 °F 22 °F (1987)
Degree Days  
Heating Degree Days 16    
Moisture  
Dew Point 40 °F    
Average Humidity 73    
Maximum Humidity 93    
Minimum Humidity 61    
Precipitation  
Precipitation 0.02 in - - ()
Sea Level Pressure  
Sea Level Pressure 29.57 in    
Wind  
Wind Speed 13 mph (West)    
Max Wind Speed 25 mph    
Max Gust Speed 39 mph    
Visibility 10 miles    
Events      
Averages and records for this station are not official NWS values.
T = Trace of Precipitation, MM = Missing Value Source: NWS Daily Summary

Daily Weather History Graph

Daily Weather History Graph

Search for Another Location

Airport or City:

Astronomy

Oct. 21, 2019 Rise Set
Actual Time 7:39 AM CDT 6:34 PM CDT
Civil Twilight 7:11 AM CDT 7:01 PM CDT
Nautical Twilight 6:39 AM CDT 7:33 PM CDT
Astronomical Twilight 6:08 AM CDT 8:04 PM CDT
Moon No Moon Rise 2:58 PM CDT (10/21)
Length of Visible Light 11h 50m
Length of Day
10h 55m
Waning Gibbous, 48% of the Moon is Illuminated
Oct 21
Waning Gibbous
Oct 27
New
Nov 4
First Quarter
Nov 12
Full
Nov 19
Last Quarter

Hourly Weather History & Observations

Time (CDT) Temp. Windchill Dew Point Humidity Pressure Visibility Wind Dir Wind Speed Gust Speed Precip Events Conditions
12:53 AM 53.1 °F - 51.1 °F 93% 29.50 in 10.0 mi SE 6.9 mph - 0.02 in   Mostly Cloudy
1:53 AM 51.1 °F - 48.0 °F 89% 29.48 in 10.0 mi South 5.8 mph - N/A   Clear
2:53 AM 48.9 °F - 46.0 °F 90% 29.47 in 10.0 mi SW 9.2 mph - N/A   Clear
3:53 AM 46.9 °F - 42.1 °F 83% 29.47 in 10.0 mi WSW 9.2 mph - N/A   Clear
4:53 AM 45.0 °F 39.7 °F 39.0 °F 80% 29.48 in 10.0 mi WSW 10.4 mph - N/A   Clear
5:53 AM 44.1 °F 38.1 °F 37.9 °F 79% 29.46 in 10.0 mi West 11.5 mph - N/A   Clear
6:53 AM 44.1 °F 39.0 °F 37.9 °F 79% 29.47 in 10.0 mi WSW 9.2 mph - N/A   Clear
7:53 AM 43.0 °F 35.4 °F 37.0 °F 80% 29.45 in 10.0 mi West 16.1 mph 24.2 mph N/A   Clear
8:53 AM 45.0 °F 37.9 °F 37.9 °F 76% 29.45 in 10.0 mi West 16.1 mph 26.5 mph N/A   Clear
9:53 AM 46.9 °F - 39.0 °F 74% 29.47 in 10.0 mi West 15.0 mph - N/A   Scattered Clouds
10:53 AM 48.0 °F - 37.0 °F 66% 29.48 in 10.0 mi West 19.6 mph 29.9 mph N/A   Overcast
11:53 AM 48.9 °F - 39.0 °F 69% 29.49 in 10.0 mi West 17.3 mph 27.6 mph N/A   Overcast
12:53 PM 52.0 °F - 39.9 °F 63% 29.50 in 10.0 mi West 19.6 mph 27.6 mph N/A   Overcast
1:53 PM 52.0 °F - 41.0 °F 66% 29.52 in 10.0 mi West 16.1 mph 28.8 mph N/A   Overcast
2:53 PM 53.1 °F - 41.0 °F 64% 29.55 in 10.0 mi West 24.2 mph 33.4 mph N/A   Overcast
3:53 PM 54.0 °F - 41.0 °F 62% 29.57 in 10.0 mi West 23.0 mph 39.1 mph N/A   Overcast
4:53 PM 53.1 °F - 39.9 °F 61% 29.60 in 10.0 mi West 20.7 mph 34.5 mph N/A   Overcast
5:53 PM 52.0 °F - 39.9 °F 63% 29.64 in 10.0 mi West 20.7 mph 36.8 mph N/A   Overcast
6:53 PM 51.1 °F - 39.0 °F 63% 29.68 in 10.0 mi WNW 18.4 mph 34.5 mph N/A   Overcast
7:53 PM 50.0 °F - 39.0 °F 66% 29.73 in 10.0 mi WNW 25.3 mph 38.0 mph N/A   Overcast
8:53 PM 46.9 °F - 39.0 °F 74% 29.75 in 10.0 mi West 17.3 mph 28.8 mph 0.00 in   Partly Cloudy
9:53 PM 48.0 °F - 39.0 °F 71% 29.78 in 10.0 mi West 21.9 mph 32.2 mph N/A   Overcast
10:53 PM 46.9 °F - 39.0 °F 74% 29.80 in 10.0 mi West 20.7 mph 31.1 mph N/A   Clear
11:53 PM 46.0 °F 39.0 °F 37.9 °F 73% 29.82 in 10.0 mi West 17.3 mph - N/A   Clear